星链-6336 (STARLINK-6336 )

导读

STARLINK-6336是美国太空探索技术公司SpaceX星链星座的一员,于2023年5月31日发射入轨。星链项目旨在构建全球卫星互联网星座,为全球偏远缺网地区提供高速宽带网络服务,该卫星也承担着星座组网运营、补充星座容量的作用,服务全球卫星互联网通信覆盖。

基本信息
目录编号:
56788
目录名称:
STARLINK-6336
国际标识:
2023-078X
轨道中心:
EARTH
卫星名称:
星链-6336
卫星全名:
星链-6336 (STARLINK-6336 )
卫星状态:
在轨 (已飞行1200 天)
发射日期:
2023-05-31 UTC
国别 :
美国 (US)
星等 :
--
该卫星已列入 空间交会检测服务 Space Conjunction Data Service (SCDS) ,当前飞行风险评估等级: 无高风险
轨道信息
数据来源 国际轨道数据 AOE轨道数据
星历时间 2026-09-12T14:57:06+0800
9小时前
查看轨道信息
2026-09-07T04:00:00+0800
5天前
查看轨道信息
半长轴 6950.194km 6950.173km
偏心率 0.0003362 0.0003681
轨道倾角 69.999° 70.000°
近地点辐角 267.867° 271.201°
升交点赤经 213.999° 227.756°
平近点角 92.211° 185.968°
近地点 569.72km 569.477km
远地点 574.394km 574.595km
周期 96.107分钟 96.107分钟
每日圈数 14.983298 14.983365
详细信息
固有亮度:
5
最大亮度:
2.5
卫星平台:
Starlink v1.5
覆盖范围:
全球
运营商:
太空探索技术公司
运营商所在国:
美国
制造商(研发单位):
太空探索技术公司
制造商所在国:
美国
使用方式:
暂无
卫星简介
星链(Starlink)计划是由太空探索技术公司(SpaceX)提出的一个巨型低轨卫星互联网星座项目,计划在2019年至2024年间在太空搭建由约1.2万颗卫星组成的“星链”网络,其中1584颗将部署在地球上空550千米处的近地轨道,并从2020年开始工作。该卫星仍在工作。
2D轨道图
3D轨道图
轨道高度分析图
轨道倾角分析图
轨道综合分析图
查看轨道综合分析图
与全量物体交会距离演化趋势
与全量物体交会风险概率演化趋势